User: anonymous   Login
Location: Reggio Emilia
(44.6990°N, 10.6297°E)
Time: 22:52:31
(UTC+02:00)
Language:

Tiangong - Orbit

View from above orbital plane
View from above orbital plane
View from above satellite
View from above satellite

Ground track
Ground track

The orbit data is extracted from the following two-line orbital elements,

1 48274U 21035A   22177.43563378  .00011885  00000-0  14373-3 0  9998
2 48274  41.4703 162.6812 0003573 330.8247 162.9505 15.60538965 66218
Epoch (UTC): 26 June 2022 10:27:18
Eccentricity: 0.0003573
inclination: 41.4703°
perigee height: 383 km
apogee height: 388 km
right ascension of ascending node: 162.6812°
argument of perigee: 330.8247°
revolutions per day: 15.60538965
mean anomaly at epoch: 162.9505°
orbit number at epoch: 6621

The dashed part of the orbit path shows where the satellite is in the earth's shadow,  

DLR